Roswell, NM

11:10 PM MDT on October 22, 2017 (GMT -0600)
Roswell Industrial

Weather History for KROW - April, 2014

Change the Weather History Date:

Monday, April 21, 2014

  Actual Average Record
Temperature  
Mean Temperature 68 °F 62 °F  
Max Temperature 86 °F 78 °F 99 °F (1989)
Min Temperature 50 °F 46 °F 32 °F (1907)
Degree Days  
Heating Degree Days 0 4  
Month to date heating degree days 126 134  
Since 1 July heating degree days 3210 3228  
Cooling Degree Days 3 2  
Month to date cooling degree days 16 17  
Year to date cooling degree days 17 20  
Growing Degree Days 18 (Base 50)    
Moisture  
Dew Point 41 °F    
Average Humidity 45    
Maximum Humidity 71    
Minimum Humidity 18    
Precipitation  
Precipitation 0.00 in 0.02 in 0.81 in (1905)
Month to date precipitation 0.11 0.37  
Year to date precipitation 0.41 1.68  
Sea Level Pressure  
Sea Level Pressure 29.94 in    
Wind  
Wind Speed 5 mph (NNE)    
Max Wind Speed 15 mph    
Max Gust Speed 18 mph    
Visibility 10 miles    
Events      
T = Trace of Precipitation, MM = Missing Value Source: NWS Daily Summary

Daily Weather History Graph

Daily Weather History Graph

Search for Another Location

Airport or City:

Trip Planner

Search our weather history database for the weather conditions in past years. The results will help you decide how hot, cold, wet, or windy it might be!

Date:

Astronomy

Apr. 21, 2014 Rise Set
Actual Time 6:20 AM MDT 7:33 PM MDT
Civil Twilight 5:54 AM MDT 7:59 PM MDT
Nautical Twilight 5:24 AM MDT 8:29 PM MDT
Astronomical Twilight 4:52 AM MDT 9:01 PM MDT
Moon 1:01 AM MDT (4/21) 11:53 AM MDT (4/21)
Length of Visible Light 14h 04m
Length of Day
13h 12m
Waning Gibbous, 57% of the Moon is Illuminated
Apr 21
Waning Gibbous
Apr 22
Last Quarter
Apr 29
New
May 6
First Quarter
May 14
Full

Hourly Weather History & Observations

Time (MDT) Temp. Dew Point Humidity Pressure Visibility Wind Dir Wind Speed Gust Speed Precip Events Conditions
12:51 AM 61.0 °F 42.1 °F 50% 29.89 in 10.0 mi NW 5.8 mph - N/A   Clear
1:51 AM 59.0 °F 44.1 °F 58% 29.89 in 10.0 mi NNW 5.8 mph - N/A   Clear
3:51 AM 53.1 °F 43.0 °F 69% 29.91 in 10.0 mi WNW 4.6 mph - N/A   Clear
4:51 AM 54.0 °F 43.0 °F 66% 29.92 in 10.0 mi West 6.9 mph - N/A   Clear
6:51 AM 51.1 °F 43.0 °F 74% 29.97 in 10.0 mi North 4.6 mph - N/A   Clear
7:51 AM 57.9 °F 46.0 °F 65% 29.99 in 10.0 mi NNE 6.9 mph - N/A   Clear
8:51 AM 62.1 °F 46.0 °F 56% 30.00 in 10.0 mi North 6.9 mph - N/A   Clear
9:51 AM 68.0 °F 46.0 °F 45% 30.00 in 10.0 mi NNE 5.8 mph - N/A   Clear
10:51 AM 75.0 °F 43.0 °F 32% 29.99 in 10.0 mi NNE 6.9 mph - N/A   Clear
11:51 AM 79.0 °F 42.1 °F 27% 29.98 in 10.0 mi Variable 5.8 mph - N/A   Clear
12:51 PM 80.1 °F 39.0 °F 23% 29.96 in 10.0 mi Variable 5.8 mph - N/A   Clear
1:51 PM 82.9 °F 39.0 °F 21% 29.94 in 10.0 mi Calm Calm - N/A   Clear
2:51 PM 84.9 °F 37.0 °F 18% 29.92 in 10.0 mi NE 6.9 mph - N/A   Clear
3:51 PM 84.0 °F 37.0 °F 19% 29.91 in 10.0 mi ENE 5.8 mph - N/A   Clear
4:51 PM 82.9 °F 35.1 °F 18% 29.90 in 10.0 mi Variable 5.8 mph - N/A   Clear
5:51 PM 82.0 °F 36.0 °F 19% 29.91 in 10.0 mi SSE 8.1 mph - N/A   Partly Cloudy
6:51 PM 82.0 °F 37.0 °F 20% 29.91 in 10.0 mi ENE 5.8 mph - N/A   Clear
7:51 PM 75.9 °F 39.9 °F 27% 29.93 in 10.0 mi East 6.9 mph - N/A   Clear
8:51 PM 71.1 °F 41.0 °F 34% 29.94 in 10.0 mi East 3.5 mph - N/A   Clear
9:51 PM 68.0 °F 41.0 °F 37% 29.96 in 10.0 mi NE 5.8 mph - N/A   Clear
10:51 PM 66.9 °F 39.9 °F 37% 29.95 in 10.0 mi NNW 4.6 mph - N/A   Clear